Harrisburg, PA

10:18 PM EDT on March 23, 2017 (GMT -0400)
Capital City

Weather History for KCXY - December, 2013

Change the Weather History Date:

Saturday, December 21, 2013

  Actual Average Record
Temperature  
Mean Temperature 44 °F -  
Max Temperature 52 °F 38 °F 64 °F (1923)
Min Temperature 36 °F 24 °F 2 °F (1942)
Degree Days  
Heating Degree Days 21    
Moisture  
Dew Point 37 °F    
Average Humidity 80    
Maximum Humidity 89    
Minimum Humidity 66    
Precipitation  
Precipitation 0.00 in - - ()
Sea Level Pressure  
Sea Level Pressure 29.95 in    
Wind  
Wind Speed 1 mph (ESE)    
Max Wind Speed 5 mph    
Max Gust Speed -    
Visibility 8 miles    
Events Rain    
Averages and records for this station are not official NWS values.
T = Trace of Precipitation, MM = Missing Value Source: NWS Daily Summary

Daily Weather History Graph

Daily Weather History Graph

Search for Another Location

Airport or City:

Trip Planner

Search our weather history database for the weather conditions in past years. The results will help you decide how hot, cold, wet, or windy it might be!

Date:

Astronomy

Dec. 21, 2013 Rise Set
Actual Time 7:26 AM EST 4:44 PM EST
Civil Twilight 6:55 AM EST 5:15 PM EST
Nautical Twilight 6:21 AM EST 5:49 PM EST
Astronomical Twilight 5:48 AM EST 6:22 PM EST
Moon 8:59 PM EST (12/21) 9:51 AM EST (12/21)
Length of Visible Light 10h 19m
Length of Day
9h 18m
Waning Gibbous, 84% of the Moon is Illuminated
Dec 21
Waning Gibbous
Dec 25
Last Quarter
Jan 1
New
Jan 7
First Quarter
Jan 15
Full

Hourly Weather History & Observations

Time (EST) Temp. Windchill Dew Point Humidity Pressure Visibility Wind Dir Wind Speed Gust Speed Precip Events Conditions
12:56 AM 37.0 °F - 33.1 °F 86% 29.98 in 10.0 mi Calm Calm - N/A   Clear
1:56 AM 36.0 °F 33.3 °F 33.1 °F 89% 29.98 in 10.0 mi ESE 3.5 mph - N/A   Scattered Clouds
2:56 AM 37.0 °F - 33.1 °F 86% 29.98 in 10.0 mi Calm Calm - N/A   Clear
3:56 AM 36.0 °F - 33.1 °F 89% 29.99 in 10.0 mi Calm Calm - N/A   Clear
4:56 AM 37.0 °F - 34.0 °F 89% 29.97 in 10.0 mi Calm Calm - N/A   Scattered Clouds
5:56 AM 36.0 °F - 33.1 °F 89% 29.98 in 10.0 mi Calm Calm - N/A   Clear
6:56 AM 36.0 °F - 33.1 °F 89% 29.99 in 8.0 mi Calm Calm - N/A   Clear
7:56 AM 36.0 °F - 33.1 °F 89% 30.01 in 8.0 mi Calm Calm - N/A   Clear
8:56 AM 37.9 °F 35.5 °F 34.0 °F 86% 30.00 in 10.0 mi SE 3.5 mph - N/A   Mostly Cloudy
9:56 AM 42.1 °F - 35.1 °F 76% 29.99 in 7.0 mi Calm Calm - N/A   Mostly Cloudy
10:56 AM 43.0 °F 40.3 °F 36.0 °F 76% 29.97 in 7.0 mi ESE 4.6 mph - N/A   Overcast
11:56 AM 46.0 °F - 37.9 °F 73% 29.95 in 8.0 mi Calm Calm - N/A   Mostly Cloudy
12:56 PM 48.9 °F - 39.0 °F 69% 29.94 in 8.0 mi SE 3.5 mph - N/A   Mostly Cloudy
1:56 PM 52.0 °F - 41.0 °F 66% 29.91 in 10.0 mi Calm Calm - N/A   Scattered Clouds
2:56 PM 50.0 °F - 41.0 °F 71% 29.94 in 8.0 mi Calm Calm - N/A   Overcast
3:56 PM 51.1 °F - 41.0 °F 68% 29.93 in 9.0 mi SE 3.5 mph - N/A   Mostly Cloudy
4:56 PM 50.0 °F - 39.9 °F 68% 29.93 in 8.0 mi ESE 3.5 mph - N/A   Clear
5:56 PM 46.0 °F - 39.0 °F 76% 29.94 in 8.0 mi Calm Calm - N/A   Partly Cloudy
6:56 PM 46.9 °F - 39.0 °F 74% 29.92 in 7.0 mi SSE 3.5 mph - N/A   Clear
7:56 PM 46.0 °F 43.9 °F 39.0 °F 76% 29.92 in 7.0 mi ESE 4.6 mph - N/A   Clear
8:56 PM 45.0 °F - 39.0 °F 80% 29.92 in 6.0 mi Calm Calm - N/A   Haze
9:56 PM 44.1 °F - 39.9 °F 85% 29.91 in 6.0 mi Calm Calm - 0.00 in   Clear
10:56 PM 44.1 °F - 39.9 °F 85% 29.89 in 6.0 mi Calm Calm - N/A   Clear
11:56 PM 48.0 °F - 43.0 °F 83% 29.86 in 6.0 mi NNW 4.6 mph - 0.00 in Rain Light Rain